Location: gie�en
(50.5804°N, 8.6692°E)
Time: 07:47:31
(UTC+02:00)

Envisat - Visible Passes

Search period start: 21 October 2021 00:00
Search period end: 31 October 2021 00:00
Orbit: 764 x 766 km, 98.2° (Epoch: 20 October)

Date Brightness Start Highest point End Pass type
(mag) Time Alt. Az. Time Alt. Az. Time Alt. Az.
21 Oct 3.5 06:29:54 10° NNE 06:34:59 65° ESE 06:40:02 10° S visible
22 Oct 4.8 05:53:22 10° NNE 05:57:56 32° E 06:02:29 10° SSE visible
22 Oct 6.0 18:53:22 10° SW 18:57:01 20° W 19:00:40 10° NW visible
23 Oct 5.8 05:17:27 10° NE 05:20:41 17° E 05:23:53 10° SE visible
23 Oct 2.9 06:55:13 10° NNE 07:00:20 80° WNW 07:05:25 10° SSW visible
24 Oct 3.9 06:18:26 10° NNE 06:23:26 52° E 06:28:23 10° S visible
24 Oct 6.4 19:20:50 10° WSW 19:22:42 12° W 19:24:34 10° WNW visible
25 Oct 5.2 05:42:01 10° NE 05:46:19 27° E 05:50:34 10° SSE visible
25 Oct 3.2 07:20:40 10° N 07:25:35 50° WNW 07:30:29 10° SW visible
25 Oct 5.8 18:41:16 10° SW 18:45:21 24° W 18:49:27 10° NW visible
26 Oct 6.1 05:06:32 10° NE 05:08:59 13° E 05:11:27 10° ESE visible
26 Oct 3.1 06:43:41 10° NNE 06:48:48 84° ESE 06:53:54 10° SSW visible
27 Oct 4.3 06:06:59 10° NNE 06:11:50 42° E 06:16:39 10° S visible
27 Oct 6.2 19:08:09 10° WSW 19:11:00 15° W 19:13:51 10° NW visible
28 Oct 5.5 05:30:45 10° NE 05:34:40 22° E 05:38:33 10° SE visible
28 Oct 3.0 07:09:04 10° N 07:14:06 61° WNW 07:19:06 10° SSW visible
29 Oct 6.2 04:56:14 10° ENE 04:57:17 11° E 04:58:20 10° E visible
29 Oct 3.3 06:32:10 10° NNE 06:37:16 69° ESE 06:42:19 10° S visible
30 Oct 4.7 05:55:35 10° NNE 06:00:14 35° E 06:04:51 10° SSE visible
30 Oct 3.5 07:34:35 10° N 07:39:18 39° WNW 07:43:59 10° SW visible
30 Oct 6.0 18:55:49 10° SW 18:59:19 18° W 19:02:48 10° NW visible
